Watertown, SD

3:29 PM CDT on July 25, 2017 (GMT -0500)
Watertown Municipal

Weather History for KATY - October, 2013

Change the Weather History Date:

Tuesday, October 22, 2013

  Actual Average Record
Temperature  
Mean Temperature 32 °F 43 °F  
Max Temperature 36 °F 54 °F 78 °F (1915)
Min Temperature 27 °F 32 °F 13 °F (1936)
Degree Days  
Heating Degree Days 33 22  
Month to date heating degree days 369 389  
Since 1 July heating degree days 505 665  
Cooling Degree Days 0 0  
Month to date cooling degree days 0 0  
Year to date cooling degree days 618 513  
Moisture  
Dew Point 26 °F    
Average Humidity 78    
Maximum Humidity 92    
Minimum Humidity 64    
Precipitation  
Precipitation 0.01 in 0.05 in 1.15 in (2004)
Month to date precipitation 4.21 1.48  
Year to date precipitation 24.15 20.35  
Snow  
Snow 0.30 in - - ()
Month to date snowfall 0.3  
Since 1 July snowfall 0.3  
Snow Depth T in    
Sea Level Pressure  
Sea Level Pressure 30.05 in    
Wind  
Wind Speed 6 mph (North)    
Max Wind Speed 14 mph    
Max Gust Speed 16 mph    
Visibility 8 miles    
Events Snow    
T = Trace of Precipitation, MM = Missing Value Source: NWS Daily Summary

Daily Weather History Graph

Daily Weather History Graph

Search for Another Location

Airport or City:

Trip Planner

Search our weather history database for the weather conditions in past years. The results will help you decide how hot, cold, wet, or windy it might be!

Date:

Astronomy

Oct. 22, 2013 Rise Set
Actual Time 7:53 AM CDT 6:31 PM CDT
Civil Twilight 7:23 AM CDT 7:01 PM CDT
Nautical Twilight 6:49 AM CDT 7:35 PM CDT
Astronomical Twilight 6:15 AM CDT 8:09 PM CDT
Moon 9:06 PM CDT (10/22) 11:29 AM CDT (10/22)
Length of Visible Light 11h 37m
Length of Day
10h 37m
Waning Gibbous, 86% of the Moon is Illuminated
Oct 22
Waning Gibbous
Oct 26
Last Quarter
Nov 3
New
Nov 9
First Quarter
Nov 17
Full

Hourly Weather History & Observations

Time (CDT) Temp. Windchill Dew Point Humidity Pressure Visibility Wind Dir Wind Speed Gust Speed Precip Events Conditions
12:53 AM 32.0 °F 27.5 °F 24.1 °F 73% 29.99 in 10.0 mi Variable 4.6 mph - N/A   Overcast
1:53 AM 32.0 °F 27.5 °F 24.1 °F 73% 29.99 in 10.0 mi ESE 4.6 mph - N/A   Overcast
2:53 AM 30.9 °F 27.5 °F 25.0 °F 79% 30.00 in 9.0 mi ESE 3.5 mph - 0.00 in Snow Light Snow
3:53 AM 30.9 °F 26.2 °F 25.0 °F 79% 29.99 in 10.0 mi East 4.6 mph - 0.00 in   Overcast
4:53 AM 30.9 °F 27.5 °F 25.0 °F 79% 29.99 in 4.0 mi ENE 3.5 mph - 0.00 in Snow Light Snow
5:30 AM 30.2 °F 26.7 °F 26.6 °F 86% 29.96 in 2.5 mi NNE 3.5 mph - 0.00 in Snow Light Snow
5:53 AM 30.0 °F 26.5 °F 27.0 °F 88% 30.01 in 2.0 mi NNE 3.5 mph - 0.00 in Snow Light Snow
5:58 AM 30.2 °F 26.7 °F 26.6 °F 86% 29.96 in 1.8 mi NE 3.5 mph - 0.00 in Snow Light Snow
6:07 AM 28.4 °F 24.6 °F 26.6 °F 93% 29.96 in 2.0 mi NE 3.5 mph - 0.00 in Snow Light Snow
6:16 AM 30.2 °F 26.7 °F 26.6 °F 86% 29.96 in 7.0 mi ENE 3.5 mph - 0.00 in Snow Light Snow
6:53 AM 28.9 °F - 27.0 °F 92% 30.03 in 9.0 mi Calm Calm - 0.00 in   Overcast
7:24 AM 28.4 °F 24.6 °F 26.6 °F 93% 29.98 in 3.0 mi North 3.5 mph - 0.00 in Snow Light Snow
7:53 AM 28.9 °F 25.2 °F 27.0 °F 92% 30.05 in 9.0 mi North 3.5 mph - 0.01 in   Overcast
8:53 AM 30.0 °F 24.1 °F 27.0 °F 88% 30.07 in 10.0 mi North 5.8 mph - N/A   Overcast
9:53 AM 30.9 °F 25.2 °F 27.0 °F 85% 30.09 in 10.0 mi North 5.8 mph - N/A   Overcast
10:53 AM 33.1 °F 26.9 °F 26.1 °F 75% 30.10 in 10.0 mi North 6.9 mph - N/A   Overcast
11:38 AM 33.8 °F 27.0 °F 26.6 °F 75% 30.05 in 10.0 mi North 8.1 mph - N/A   Overcast
11:53 AM 34.0 °F 27.2 °F 27.0 °F 75% 30.11 in 10.0 mi North 8.1 mph - N/A   Overcast
12:21 PM 35.6 °F 28.6 °F 26.6 °F 70% 30.05 in 10.0 mi North 9.2 mph - N/A   Overcast
12:28 PM 35.6 °F 28.6 °F 26.6 °F 70% 30.05 in 10.0 mi NNE 9.2 mph - N/A   Overcast
12:53 PM 36.0 °F 29.6 °F 27.0 °F 70% 30.11 in 10.0 mi NNE 8.1 mph - N/A   Overcast
1:23 PM 35.6 °F 28.6 °F 26.6 °F 70% 30.04 in 10.0 mi NNW 9.2 mph - N/A   Overcast
1:40 PM 35.6 °F 28.6 °F 26.6 °F 70% 30.04 in 10.0 mi NNW 9.2 mph - N/A   Overcast
1:53 PM 36.0 °F 29.0 °F 25.0 °F 64% 30.10 in 10.0 mi NW 9.2 mph - N/A   Overcast
2:53 PM 36.0 °F 28.5 °F 26.1 °F 67% 30.10 in 10.0 mi NNW 10.4 mph - N/A   Overcast
3:53 PM 36.0 °F 28.5 °F 26.1 °F 67% 30.11 in 10.0 mi NW 10.4 mph - N/A   Overcast
4:53 PM 36.0 °F 29.0 °F 26.1 °F 67% 30.11 in 10.0 mi North 9.2 mph - N/A   Overcast
5:53 PM 36.0 °F 28.5 °F 25.0 °F 64% 30.12 in 10.0 mi NNW 10.4 mph - N/A   Overcast
6:53 PM 35.1 °F 29.3 °F 26.1 °F 70% 30.12 in 10.0 mi NW 6.9 mph - N/A   Overcast
7:53 PM 35.1 °F 27.9 °F 26.1 °F 70% 30.12 in 10.0 mi NW 9.2 mph - N/A   Overcast
8:53 PM 35.1 °F 29.3 °F 26.1 °F 70% 30.12 in 10.0 mi NW 6.9 mph - N/A   Overcast
9:53 PM 35.1 °F 31.0 °F 27.0 °F 72% 30.12 in 10.0 mi NW 4.6 mph - N/A   Overcast
10:53 PM 33.1 °F - 27.0 °F 78% 30.11 in 10.0 mi Calm Calm - N/A   Overcast
11:53 PM 30.9 °F 27.5 °F 26.1 °F 82% 30.10 in 10.0 mi West 3.5 mph - N/A   Mostly Cloudy